Regional Weather Roundup
Issued by NWS

Home | Current Version | Previous Version | Text Only | Print | Product List | Glossary On
Versions: 1 2 3 4 5 6 7 8 9 10 11 12 13 14 15 16 17 18 19 20 21 22 23 24 25 26 27 28 29 30 31 32 33 34 35 36 37 38 39 40 41 42 43 44 45 46 47 48 49 50
000
ASUS43 KMKX 101320
RWRWI

WISCONSIN REGIONAL WEATHER ROUNDUP
NATIONAL WEATHER SERVICE MILWAUKEE/SULLIVAN WI
700 AM CST WED FEB 10 2016

NOTE: "FAIR" INDICATES FEW OR NO CLOUDS BELOW 12,000 FEET WITH NO
SIGNIFICANT WEATHER AND/OR OBSTRUCTIONS TO VISIBILITY.

WIZ001-002-006>008-014>016-023>028-101400-
NORTHWEST WISCONSIN

CITY           SKY/WX    TMP DP  RH WIND       PRES   REMARKS
SUPERIOR ARPT  CLOUDY    -7 -12  78 N5        30.15S WCI -18
ASHLAND        CLOUDY     4  -3  73 NW10      30.10R WCI -11
HAYWARD        CLOUDY     2  -4  76 N3        30.05R
SIREN          CLOUDY   -13 -19  75 CALM      30.11S
CUMBERLAND     PTCLDY    -8 -13  77 NW6       30.06S WCI -21
RICE LAKE      CLOUDY    -3  -8  79 W6        30.09S WCI -15
CHETEK         CLOUDY    -3  -8  81 MISG      30.07S
LADYSMITH      CLOUDY     3  -3  75 NW5       30.05R WCI  -6
EAU CLAIRE     CLOUDY    -3  -9  75 NW9       30.09R WCI -19
MENOMONIE      PTCLDY    -3 -10  72 W6        30.10S WCI -15
NEW RICHMOND   PTCLDY    -4  -8  82 NW5       30.09F WCI -14
OSCEOLA        PTCLDY    -2  -7  80 CALM      30.14S
$$

WIZ003>005-009-010-017-018-101400-
NORTH CENTRAL WISCONSIN

CITY           SKY/WX    TMP DP  RH WIND       PRES   REMARKS
MANITOWISH WTR FLURRIES   2  -2  81 CALM      29.95R
ARBOR VITAE    CLOUDY     4  -1  79 N5        29.94R WCI  -5
WOODRUFF       CLOUDY     4  -1  79 N5        29.94R WCI  -5
RHINELANDER    CLOUDY     4  -3  73 N6        29.93R WCI  -7
EAGLE RIVER    CLOUDY     3  -6  68 CALM      29.93R
LAND O LAKES   FLURRIES   2  -3  80 N8        29.94R WCI -11
PHILLIPS       CLOUDY    -2  -7  81 NW3       29.98R
TOMAHAWK       CLOUDY     3  -3  77 NW9       29.97R WCI -12
MEDFORD        CLOUDY    -3  -7  85 NW6       29.97R WCI -15
MERRILL        CLOUDY     4  -2  74 NW9       29.98R WCI -10
$$

WIZ029-030-035-036-043>047-101400-
CENTRAL WISCONSIN

CITY           SKY/WX    TMP DP  RH WIND       PRES   REMARKS
WAUSAU         CLOUDY     7  -2  66 NW12      29.97R WCI  -8
MOSINEE        CLOUDY     5   0  78 NW10      29.98R WCI -10
MARSHFIELD     MOCLDY     1  -7  68 NW12      29.99R WCI -16
STEVENS POINT  FLURRIES   5  -1  75 NW5       29.99R WCI  -4
WAUPACA        CLOUDY    10  -3  54 N10       30.00R WCI  -3
WAUTOMA        CLOUDY     7  -3  63 NW7       30.01R WCI  -4
WISC RAPIDS    CLOUDY     6  -3  66 NW9       30.02R WCI  -8
CAMP DOUGLAS   MOCLDY    -4  -8  84 W7        30.05R WCI -18
$$

WIZ011>013-019>022-031-037>040-048>050-101400-
NORTHEAST WISCONSIN

CITY           SKY/WX    TMP DP  RH WIND       PRES   REMARKS
ANTIGO         CLOUDY     4  -6  65 N14       29.93R WCI -14
SHAWANO        CLOUDY    10  -3  54 NW7       29.99R WCI  -1
OCONTO         PTCLDY     6  -6  57 NW9G18    29.98R WCI  -8
STURGEON BAY   CLEAR      5  -6  61 NW15      29.96R WCI -13
GREEN BAY      CLEAR      2  -6  69 NW7       29.98R WCI -11
MANITOWOC      PTCLDY     6  -3  66 NW13      29.97R WCI -10
APPLETON       PTCLDY     7  -8  51 NW12      29.95R WCI  -9
CLINTONVILLE   CLOUDY    10  -6  48 N7        29.99R WCI   0
OSHKOSH        CLOUDY     8  -4  58 N13       29.98R WCI  -8
$$

WIZ032>034-041-042-053>061-101400-
SOUTHWEST WISCONSIN

CITY           SKY/WX    TMP DP  RH WIND       PRES   REMARKS
LA CROSSE      PTCLDY    -1  -9  68 N6        30.11R WCI -13
SPARTA         CLOUDY   -13 -16  83 CALM      30.09R
VIROQUA        PTCLDY    -3  -8  79 NW8       30.03R WCI -18
BOSCOBEL       CLOUDY    -4 -10  75 CALM      30.10S
PRAIRIE DU CHI CLOUDY     4  -6  64 NW7       30.11S WCI  -8
PLATTEVILLE    CLOUDY     1  -4  76 W6        30.05S WCI -10
$$

WIZ056-057-062-063-064-067-068-101400-
SOUTH CENTRAL WISCONSIN

CITY           SKY/WX    TMP DP  RH WIND       PRES   REMARKS
REEDSBURG      PTCLDY     0  -6  75 NW6       30.04R WCI -11
BARABOO/DELLS  PTCLDY     0  -6  76 NW3       30.02S
LONE ROCK      CLOUDY     2  -7  66 NW9       30.07R WCI -13
MINERAL POINT  PTCLDY     1  -6  71 NW5       30.01S WCI  -8
MADISON        MOCLDY     4  -3  73 W9        30.02R WCI -10
MIDDLETON      CLEAR      4  -3  72 W8        30.02R WCI  -9
WATERTOWN      CLOUDY     9   2  72 NW10      29.98R WCI  -5
MONROE         CLEAR      3  -2  78 NW10      30.00R WCI -12
JANESVILLE     MOCLDY     9   1  72 NW9       30.01R WCI  -5
$$

WIZ051-052-058>065-066-070>072-101400-
SOUTHEAST WISCONSIN

CITY           SKY/WX    TMP DP  RH WIND       PRES   REMARKS
MILWAUKEE      PTCLDY     9   0  67 NW9       29.97S WCI  -4
WAUKESHA       MOCLDY     5  -2  72 NW9       29.97R WCI  -9
MILWAUKEE/TIMM CLEAR      7  -2  66 NW6       29.98R WCI  -3
RACINE         CLEAR      8  -1  66 NW3       29.98F
BURLINGTON     PTCLDY     3  -3  75 NW6       29.97R WCI  -8
KENOSHA        CLEAR      8  -1  66 NW7       29.97S WCI  -3
FOND DU LAC    CLOUDY     9  -2  61 NW10      29.98R WCI  -5
SHEBOYGAN      PTCLDY     6  -5  60 NW10      29.96R WCI  -9
WEST BEND      PTCLDY     7  -2  66 CALM      29.96R
JUNEAU         CLOUDY     9  -1  64 NW6G16    29.98R WCI  -1
$$

LSZ147-162-101400-
LAKE SUPERIOR

STATION/POSITION TIME  TEMP    WIND        PRES    WAVE
                       AIR SEA DIR/SP/G            HT/PER
                 (UTC) (F)     (DEG/KT/KT) (MB)    (FT/S)
DEVILS ISLAND    1300    4      10/ 11/ 13 1021.7R
PORT WING        1200    5     350/  7/ 12 1020.0
SAXON HARBOR     1200    8                 1017.6R
$$

LMZ867-665-643>646-101400-
LAKE MICHIGAN

STATION/POSITION TIME  TEMP    WIND        PRES    WAVE
                       AIR SEA DIR/SP/G            HT/PER
                 (UTC) (F)     (DEG/KT/KT) (MB)    (FT/S)
CHAMBERS ISLAND  1200    8     300/ 14/ 21 1013.5S
ALGOMA LAKESHORE 1211          320/  9/ 13   N/A
KEWAUNEE LAKESHO 1300    6     320/  9/ 15 1013.6R
SHEBOYGAN LAKESH 1300    8     320/ 16/ 19 1016.3R
PORT WASHINGTON  1240    9     320/  6/ 13 1015.9R
MILWAUKEE LAKESH 1310   11     310/  9/ 12   N/A
KENOSHA   LAKESH 1300    9     300/  8/ 11 1015.2S
$$

TC  - TEMPERATURE IN CELSIUS
VSB - VISIBILITY IN STATUTE MILES
WCI - WIND CHILL INDEX
HX  - HEAT INDEX




USA.gov is the U.S. government's official web portal to all federal, state and local government web resources and services.